Weather in Bolshiye Chaki

Russia / Chuvash Republic     55°41′54″N   47°48′42″E
temp.,
°C
wind,
m/s
gust,
m/s
humid.,
%
clouds,
%
prec.,
mm/h
press.,
hPa
HPBL,
m
23 april, fri
fri2300:00+5wsw11865 0.0 102310
03:00+4s228712 0.0 102411
06:00+5s23845 0.0 102461
09:00+11s34615 0.0 1024584
12:00+14s344921 0.0 10241630
15:00+15sse444662 0.0 10221873
18:00+12se35597 0.0 1021124
21:00+8se3779100 0.0 1021120
24 april, sat
sat2400:00+8ese3584100 0.0 101975
03:00+7e3684100 0.0 1017114
06:00+7e4986100 0.0 1016299
09:00+9ese5778100 0.0 1014701
12:00+9ese5682100 0.1 1013614
15:00+7ese5684100 0.2 1011800
18:00+7ese4790100 0.1 1009499
21:00+5se5119650 0.1 1007371
25 april, sun
sun2500:00+5sse5996100 3.0 1004694
03:00+4wsw81279100 4.3 1005923
06:00+5wsw6108261 0.0 1005965
09:00+5wsw710677 0.0 10061124
12:00+8w895698 0.1 10071787
15:00+9wsw7105397 0.4 10092010
18:00+7wsw7115986 0.6 1010933
21:00+4sw5127118 0.9 1012488
26 april, mon
mon2600:00+3sw714745 0.0 1013548
03:00+2sw614785 0.0 1014464
06:00+3sw5128245 0.0 1015558
09:00+7sw81562100 0.0 10141655
12:00+7wsw8116461 0.4 10141442
15:00+8w695391 0.6 10141677
18:00+7wsw586460 0.1 1013547
21:00+5ssw347699 0.1 101362
27 april, tue
tue2700:00+4sse2492100 1.4 1012162
03:00+3nnw1297100 3.3 1010129
06:00+1nnw3699100 2.4 1010244
09:00+2wsw3699100 3.8 1011254
12:00+7wsw686393 0.7 10101516
15:00+8wsw6857100 1.6 10101472
18:00+6wsw4868100 0.7 1010382
21:00+4wsw4118254 0.8 1011270